Home   Weather   Klosterneuburg   Past weeks

Flag for Austria Past Weather in Klosterneuburg, Lower Austria, Austria — Yesterday and Last 2 Weeks

Now
49 °F

Cool.


Feels Like: 47 °F
Forecast: 31 / 56 °F
Wind: 6 mph from Northwest

Location: Wien / Hohe Warte

Current Time: Apr 23, 2017 at 12:33:41 pm

Latest Report: Apr 23, 2017 at 11:00 am


Visibility: N/A

Pressure: 30.14 "Hg

Humidity: 51%

Dew Point: 32 °F

Location of KlosterneuburgLocation

Past Weather in Klosterneuburg — Graph

°F

Klosterneuburg Temperature Yesterday

Maximum temperature yesterday: 56 °F (at 11:00 am)
Minimum temperature yesterday: 42 °F (at 10:00 pm)
Average temperature yesterday: 50 °F

High & Low Weather Summary for the Past Weeks

 TemperatureHumidityPressure
High72 °F (Apr 10, 5:00 pm)97% (Apr 9, 7:00 am)30.50 "Hg (Apr 9, 7:00 am)
Low34 °F (Apr 19, 8:00 am)35% (Apr 16, 12:00 pm)29.80 "Hg (Apr 13, 6:00 am)
Average49 °F66%30.10 "Hg
* Reported Apr 8 11:00 am — Apr 23 11:00 am, Klosterneuburg, Weather by CustomWeather, © 2017

Note: Actual official high and low records may vary slightly from our data, if they occured in-between our weather recording intervals... More about our weather records

Advertising

Klosterneuburg Weather History for the Previous 24 Hours

Scroll right to see more
 ConditionsComfort  
Time TempWeatherWind HumidityBarometerVisibility
11:00 am
Sun, Apr 23
49 °FCool.6 mph51%30.14 "HgN/A
10:00 am45 °FScattered clouds.8 mph61%30.15 "Hg28 mi
9:00 am45 °FScattered clouds.6 mph64%30.15 "Hg16 mi
8:00 am43 °FOvercast.5 mph70%30.14 "Hg28 mi
7:00 am42 °FScattered clouds.6 mph73%30.11 "Hg28 mi
6:00 am42 °FQuite cool.6 mph70%30.08 "HgN/A
5:00 am42 °FQuite cool.6 mph69%30.07 "HgN/A
4:00 am42 °FQuite cool.6 mph72%30.07 "HgN/A
3:00 am43 °FQuite cool.6 mph75%30.07 "HgN/A
2:00 am43 °FPassing clouds.5 mph78%30.09 "Hg12 mi
1:00 am43 °FQuite cool.6 mph82%30.09 "HgN/A
12:00 am43 °FQuite cool.5 mph85%30.09 "HgN/A
11:00 pm
Sat, Apr 22
43 °FOvercast.5 mph86%30.09 "Hg12 mi
10:00 pm42 °FOvercast.3 mph90%30.09 "Hg10 mi
8:00 pm42 °FRain. Overcast.3 mph88%30.07 "Hg6 mi
7:00 pm44 °FRain. Low clouds.6 mph92%30.07 "Hg4 mi
6:00 pm46 °FSprinkles. Overcast.8 mph89%30.06 "Hg7 mi
5:00 pm54 °FOvercast.9 mph57%29.99 "Hg16 mi
4:00 pm55 °FOvercast.12 mph54%30.00 "Hg16 mi
3:00 pm55 °FOvercast.8 mph55%30.03 "Hg16 mi
2:00 pm54 °FOvercast.7 mph56%30.06 "Hg16 mi
1:00 pm52 °FOvercast.6 mph54%30.08 "Hg16 mi
12:00 pm53 °FOvercast.7 mph52%30.09 "Hg16 mi
Weather by CustomWeather, © 2017

See weather overviewHow to use our weather pages